Regional Weather Roundup
Issued by NWS

Home | Current Version | Previous Version | Graphics & Text | Print | Product List | Glossary On
Versions: 1 2 3 4 5 6 7 8 9 10 11 12 13 14 15 16 17 18 19 20 21 22 23 24 25 26 27 28 29 30 31 32 33 34 35 36 37 38 39 40 41 42 43 44 45 46 47 48 49 50
000
ASUS44 KMEG 201810
RWRTN
TENNESSEE HOURLY STATE WEATHER ROUNDUP
NATIONAL WEATHER SERVICE MEMPHIS TN
100 PM CDT SUN AUG 20 2017

TNZ002-004-019-021-049-052-054-088>092-201900-
WEST TENNESSEE

CITY           SKY/WX    TMP DP  RH WIND       PRES   REMARKS
MEMPHIS INTL   PTSUNNY   94  75  54 VRB3      30.05F HX 105
NWS MEMPHIS      N/A     87 N/A N/A MISG        N/A
JACKSON        MOSUNNY   92  76  59 E5        30.06F HX 104
DYERSBURG      MOSUNNY   90  77  65 E5        30.06F HX 103
SOMERVILLE     PTSUNNY   88  75  66 SW10      30.05F HX  97
COVINGTON      PTSUNNY   90  75  62 CALM      30.05S HX 100
UNION CITY     SUNNY     91  72  52 CALM      30.05F HX  98
BOLIVAR        PTSUNNY   91  73  55 CALM      30.06S HX 100
PARIS          SUNNY     90  70  51 SE8       30.07S HX  95
HUNTINGDON     SUNNY     90  70  51 E5        30.06F HX  95
LEXINGTON      SUNNY     90  70  51 CALM      30.07F HX  95
SELMER         MOSUNNY   90  72  55 VRB5      30.07F HX  96
SAVANNAH       MOSUNNY   91  70  49 CALM      30.06F HX  97
$$

TNZ008-025-027-028-033-062-065-066-201900-
NORTH MIDDLE TENNESSEE

CITY           SKY/WX    TMP DP  RH WIND       PRES   REMARKS
NASHVILLE      PTSUNNY   91  71  51 E7        30.10F HX  97
PORTLAND       MOSUNNY   90  66  45 CALM      30.10F HX  92
CLARKSVILLE    SUNNY     89  66  46 SE5       30.09F HX  91
SMYRNA         MOSUNNY   91  71  51 SE7       30.10F HX  97
COOKEVILLE     SUNNY     88  70  55 VRB5      30.12F HX  92
GALLATIN       SUNNY     91  64  40 NE5       30.11F HX  93
CROSSVILLE     SUNNY     85  65  51 VRB3      30.18F
$$

TNZ061-075-076-078-094-096-097-201900-
SOUTH MIDDLE TENNESSEE

CITY           SKY/WX    TMP DP  RH WIND       PRES   REMARKS
FAYETTEVILLE   SUNNY     90  66  45 CALM      30.11F HX  92
TULLAHOMA      MOSUNNY   88  66  48 S6        30.14S HX  90
WINCHESTER     PTSUNNY   90  70  51 VRB3      30.12F HX  95
MCMINNVILLE    SUNNY     90  72  55 CALM      30.13F HX  96
COLUMBIA       SUNNY     90  70  51 VRB3      30.07F HX  95
SHELBYVILLE    MOSUNNY   88  72  58 SW6       30.11S HX  94
$$

TNZ017-018-042-046-047-201900-
NORTHEAST TENNESSEE

CITY           SKY/WX    TMP DP  RH WIND       PRES   REMARKS
TRI CITIES     MOSUNNY   87  65  47 CALM      30.17S
ELIZABETHTON   SUNNY     86  68  54 NW6       30.17S
$$

TNZ012-013-036-069-073-074-201900-
CENTRAL EAST TENNESSEE

CITY           SKY/WX    TMP DP  RH WIND       PRES   REMARKS
KNOXVILLE      MOSUNNY   87  66  49 VRB5      30.13S
OAK RIDGE      MOSUNNY   87  67  51 VRB3      30.14F HX  90
DOWNTOWN KNOXV SUNNY     88  68  51 CALM      30.12F HX  91
GATLINBURG     SUNNY     88  63  42 VRB3      30.12S
MORRISTOWN     SUNNY     86  68  54 VRB7      30.14F
JACKSBORO      MOSUNNY   86  66  51 VRB5      30.17F
$$

TNZ083-085-099-201900-
SOUTHEAST TENNESSEE

CITY           SKY/WX    TMP DP  RH WIND       PRES   REMARKS
CHATTANOOGA    MOSUNNY   89  68  49 W6        30.12F HX  93
DAYTON         CLEAR     90  72  55 CALM      30.11F HX  96
$$

SKY/WX REPORTED AS FAIR MEANS FEW OR NO CLOUDS BELOW
12 THOUSAND FEET.




USA.gov is the U.S. government's official web portal to all federal, state and local government web resources and services.